| time (UTC) | temp F | wind direction | speed MPH | gust MPH | rain 1hr in | rain 24hr in | rain mn in | humidity % | barometer mb |
| 20260904045504 | 56 | 236 | 1.0 | 2.0 | 0.00 | 0.48 | 0.48 | 88 | 1010.0 |
| 20260904044004 | 56 | 155 | 0.0 | 1.0 | 0.00 | 0.48 | 0.48 | 88 | 1010.0 |
| 20260904043503 | 57 | 155 | 0.0 | 1.0 | 0.00 | 0.48 | 0.48 | 88 | 1009.9 |
| 20260904043004 | 57 | 155 | 0.0 | 2.0 | 0.00 | 0.48 | 0.48 | 88 | 1010.0 |
| 20260904042504 | 57 | 155 | 1.0 | 2.0 | 0.00 | 0.48 | 0.48 | 88 | 1009.9 |
| 20260904042004 | 57 | 152 | 2.0 | 3.0 | 0.00 | 0.48 | 0.48 | 88 | 1009.9 |
| 20260904041504 | 57 | 173 | 0.0 | 2.0 | 0.00 | 0.48 | 0.48 | 87 | 1010.0 |
| 20260904041004 | 57 | 152 | 1.0 | 2.0 | 0.00 | 0.48 | 0.48 | 87 | 1010.0 |
| 20260904040504 | 57 | 0 | 0.0 | 1.0 | 0.00 | 0.48 | 0.48 | 87 | 1010.0 |
| 20260904040004 | 57 | 0 | 0.0 | 1.0 | 0.00 | 0.48 | 0.48 | 87 | 1010.0 |
| 20260904035504 | 57 | 236 | 1.0 | 2.0 | 0.00 | 0.48 | 0.48 | 87 | 1009.9 |
| 20260904034504 | 57 | 212 | 0.0 | 2.0 | 0.00 | 0.48 | 0.48 | 87 | 1009.8 |
| 20260904034004 | 57 | 0 | 0.0 | 2.0 | 0.00 | 0.48 | 0.48 | 86 | 1009.7 |
| 20260904033504 | 57 | 212 | 0.0 | 2.0 | 0.00 | 0.48 | 0.48 | 86 | 1009.7 |
| 20260904033004 | 57 | 212 | 0.0 | 2.0 | 0.00 | 0.48 | 0.48 | 86 | 1009.6 |
| 20260904032004 | 58 | 332 | 1.0 | 2.0 | 0.00 | 0.48 | 0.48 | 85 | 1009.5 |
| 20260904031504 | 58 | 325 | 0.0 | 2.0 | 0.00 | 0.48 | 0.48 | 85 | 1009.6 |
| 20260904030004 | 58 | 358 | 1.0 | 1.0 | 0.00 | 0.48 | 0.48 | 84 | 1009.4 |
| 20260904025504 | 58 | 357 | 0.0 | 2.0 | 0.00 | 0.48 | 0.48 | 84 | 1009.4 |
| 20260904025004 | 58 | 358 | 1.0 | 2.0 | 0.00 | 0.48 | 0.48 | 83 | 1009.4 |
| 20260904024504 | 58 | 330 | 2.0 | 3.0 | 0.00 | 0.48 | 0.48 | 82 | 1009.4 |
| 20260904024004 | 59 | 353 | 2.0 | 2.0 | 0.00 | 0.48 | 0.48 | 81 | 1009.3 |
| 20260904023504 | 59 | 218 | 1.0 | 5.0 | 0.00 | 0.48 | 0.48 | 81 | 1009.3 |
| 20260904022503 | 59 | 326 | 1.0 | 3.0 | 0.00 | 0.48 | 0.48 | 79 | 1009.1 |
| 20260904022004 | 60 | 355 | 2.0 | 5.0 | 0.00 | 0.48 | 0.48 | 79 | 1009.2 |
| 20260904021504 | 60 | 194 | 3.0 | 5.0 | 0.00 | 0.48 | 0.48 | 79 | 1009.2 |
| 20260904021004 | 60 | 187 | 2.0 | 5.0 | 0.00 | 0.48 | 0.48 | 77 | 1009.2 |
| 20260904020504 | 60 | 346 | 3.0 | 6.0 | 0.00 | 0.48 | 0.48 | 77 | 1009.2 |
| 20260904020004 | 60 | 199 | 1.0 | 5.0 | 0.00 | 0.48 | 0.48 | 77 | 1009.2 |
| 20260904015504 | 60 | 0 | 1.0 | 5.0 | 0.00 | 0.48 | 0.48 | 77 | 1009.2 |
| 20260904015004 | 60 | 47 | 3.0 | 6.0 | 0.00 | 0.48 | 0.48 | 76 | 1009.3 |
| 20260904014503 | 60 | 194 | 3.0 | 6.0 | 0.00 | 0.48 | 0.48 | 76 | 1009.2 |
| 20260904014004 | 60 | 182 | 3.0 | 6.0 | 0.00 | 0.48 | 0.48 | 76 | 1009.3 |
| 20260904013504 | 60 | 169 | 3.0 | 8.0 | 0.00 | 0.48 | 0.48 | 75 | 1009.2 |
| 20260904013004 | 60 | 183 | 3.0 | 8.0 | 0.00 | 0.48 | 0.48 | 75 | 1009.2 |
| 20260904012504 | 61 | 181 | 6.0 | 10.0 | 0.00 | 0.48 | 0.48 | 75 | 1009.2 |
| 20260904012004 | 61 | 170 | 5.0 | 8.0 | 0.00 | 0.48 | 0.48 | 75 | 1009.2 |
| 20260904011505 | 61 | 152 | 5.0 | 9.0 | 0.00 | 0.48 | 0.48 | 74 | 1009.2 |
| 20260904010505 | 62 | 181 | 4.0 | 7.0 | 0.00 | 0.49 | 0.48 | 73 | 1009.1 |
| 20260904010006 | 62 | 215 | 2.0 | 7.0 | 0.00 | 0.49 | 0.48 | 72 | 1009.0 |
| 20260904005505 | 62 | 15 | 5.0 | 8.0 | 0.00 | 0.49 | 0.48 | 71 | 1009.1 |
| 20260904004505 | 62 | 210 | 6.0 | 9.0 | 0.00 | 0.49 | 0.48 | 71 | 1009.1 |
| 20260904003505 | 62 | 251 | 5.0 | 10.0 | 0.00 | 0.49 | 0.48 | 71 | 1009.2 |
| 20260904003005 | 63 | 132 | 7.0 | 12.0 | 0.00 | 0.49 | 0.48 | 71 | 1009.2 |
| 20260904002505 | 63 | 184 | 7.0 | 12.0 | 0.00 | 0.49 | 0.48 | 69 | 1009.2 |
| 20260904002005 | 64 | 171 | 7.0 | 13.0 | 0.00 | 0.49 | 0.48 | 69 | 1009.2 |
| 20260904001505 | 64 | 0 | 10.0 | 14.0 | 0.00 | 0.49 | 0.48 | 69 | 1009.2 |
| 20260904001006 | 64 | 200 | 8.0 | 14.0 | 0.00 | 0.49 | 0.48 | 68 | 1009.1 |
| 20260904000505 | 64 | 174 | 7.0 | 14.0 | 0.00 | 0.49 | 0.48 | 68 | 1009.1 |
| 20260903235505 | 64 | 195 | 5.0 | 13.0 | 0.00 | 0.49 | 0.48 | 67 | 1009.1 |
| 20260903234505 | 63 | 218 | 3.0 | 9.0 | 0.00 | 0.49 | 0.48 | 71 | 1009.1 |
| 20260903234005 | 63 | 189 | 8.0 | 12.0 | 0.00 | 0.49 | 0.48 | 70 | 1009.1 |
| 20260903233505 | 63 | 204 | 7.0 | 10.0 | 0.00 | 0.49 | 0.48 | 72 | 1009.0 |
| 20260903233005 | 63 | 188 | 7.0 | 12.0 | 0.00 | 0.49 | 0.48 | 72 | 1009.2 |
| 20260903232505 | 63 | 186 | 7.0 | 15.0 | 0.00 | 0.49 | 0.48 | 71 | 1009.2 |
| 20260903232006 | 63 | 169 | 8.0 | 15.0 | 0.00 | 0.49 | 0.48 | 73 | 1009.3 |
| 20260903231506 | 62 | 207 | 8.0 | 17.0 | 0.00 | 0.49 | 0.48 | 71 | 1009.3 |
| 20260903231005 | 61 | 200 | 7.0 | 15.0 | 0.00 | 0.49 | 0.48 | 73 | 1009.4 |
| 20260903230005 | 61 | 179 | 9.0 | 15.0 | 0.00 | 0.49 | 0.48 | 75 | 1009.4 |
| 20260903225505 | 61 | 161 | 6.0 | 10.0 | 0.00 | 0.49 | 0.48 | 77 | 1009.5 |
| 20260903225005 | 60 | 164 | 10.0 | 15.0 | 0.00 | 0.49 | 0.48 | 77 | 1009.5 |
| 20260903224505 | 60 | 204 | 5.0 | 15.0 | 0.00 | 0.49 | 0.48 | 78 | 1009.6 |
| 20260903224005 | 60 | 199 | 9.0 | 14.0 | 0.00 | 0.49 | 0.48 | 78 | 1009.6 |
| 20260903223505 | 60 | 163 | 12.0 | 18.0 | 0.00 | 0.49 | 0.48 | 77 | 1009.6 |
| 20260903223005 | 60 | 161 | 8.0 | 13.0 | 0.00 | 0.49 | 0.48 | 79 | 1009.6 |
| 20260903222505 | 60 | 164 | 8.0 | 14.0 | 0.00 | 0.49 | 0.48 | 77 | 1009.6 |
| 20260903222004 | 61 | 187 | 5.0 | 14.0 | 0.00 | 0.49 | 0.48 | 77 | 1009.5 |
| 20260903221505 | 61 | 17 | 6.0 | 16.0 | 0.00 | 0.49 | 0.48 | 76 | 1009.3 |
| 20260903221005 | 62 | 174 | 9.0 | 15.0 | 0.00 | 0.50 | 0.48 | 75 | 1009.4 |
| 20260903220006 | 62 | 195 | 5.0 | 12.0 | 0.00 | 0.50 | 0.48 | 77 | 1009.3 |
| 20260903215506 | 61 | 174 | 8.0 | 17.0 | 0.00 | 0.50 | 0.48 | 78 | 1009.3 |
| 20260903215005 | 60 | 175 | 9.0 | 14.0 | 0.00 | 0.50 | 0.48 | 79 | 1009.3 |
| 20260903214005 | 60 | 17 | 8.0 | 16.0 | 0.01 | 0.50 | 0.48 | 81 | 1009.3 |
| 20260903213505 | 61 | 147 | 6.0 | 14.0 | 0.01 | 0.50 | 0.48 | 83 | 1009.3 |
| 20260903213005 | 60 | 120 | 9.0 | 14.0 | 0.01 | 0.51 | 0.48 | 83 | 1009.5 |
| 20260903212005 | 60 | 157 | 7.0 | 15.0 | 0.01 | 0.51 | 0.48 | 85 | 1009.6 |
| 20260903211506 | 60 | 0 | 10.0 | 16.0 | 0.01 | 0.51 | 0.48 | 85 | 1009.6 |
| 20260903211006 | 60 | 158 | 8.0 | 16.0 | 0.01 | 0.51 | 0.48 | 86 | 1009.6 |
| 20260903210505 | 59 | 155 | 9.0 | 18.0 | 0.02 | 0.51 | 0.48 | 86 | 1009.5 |
| 20260903210006 | 58 | 176 | 7.0 | 13.0 | 0.02 | 0.52 | 0.48 | 87 | 1009.5 |
| 20260903205505 | 58 | 190 | 9.0 | 14.0 | 0.02 | 0.52 | 0.48 | 87 | 1009.5 |
| 20260903205005 | 58 | 4 | 7.0 | 16.0 | 0.03 | 0.52 | 0.48 | 87 | 1009.6 |
| 20260903204505 | 59 | 181 | 9.0 | 16.0 | 0.02 | 0.51 | 0.47 | 88 | 1009.6 |
| 20260903204006 | 59 | 169 | 9.0 | 18.0 | 0.10 | 0.51 | 0.47 | 88 | 1009.4 |
| 20260903203505 | 59 | 178 | 6.0 | 9.0 | 0.12 | 0.51 | 0.47 | 89 | 1009.5 |
| 20260903203005 | 58 | 146 | 6.0 | 12.0 | 0.13 | 0.52 | 0.47 | 89 | 1009.5 |
| 20260903202504 | 58 | 201 | 4.0 | 10.0 | 0.14 | 0.52 | 0.47 | 89 | 1009.5 |
| 20260903202006 | 58 | 178 | 7.0 | 13.0 | 0.14 | 0.52 | 0.47 | 89 | 1009.5 |
| 20260903201505 | 58 | 175 | 6.0 | 15.0 | 0.14 | 0.52 | 0.47 | 89 | 1009.6 |
| 20260903201005 | 58 | 185 | 8.0 | 14.0 | 0.14 | 0.53 | 0.47 | 89 | 1009.5 |
| 20260903200006 | 58 | 167 | 4.0 | 12.0 | 0.14 | 0.52 | 0.46 | 89 | 1009.4 |
| 20260903195505 | 58 | 165 | 7.0 | 14.0 | 0.14 | 0.53 | 0.46 | 88 | 1009.4 |
| 20260903195005 | 58 | 174 | 9.0 | 17.0 | 0.13 | 0.52 | 0.45 | 87 | 1009.4 |
| 20260903194505 | 58 | 336 | 9.0 | 15.0 | 0.13 | 0.52 | 0.45 | 87 | 1009.4 |
| 20260903194005 | 58 | 0 | 9.0 | 15.0 | 0.05 | 0.44 | 0.37 | 87 | 1009.4 |
| 20260903193505 | 59 | 148 | 5.0 | 10.0 | 0.04 | 0.42 | 0.35 | 87 | 1009.3 |
| 20260903192005 | 59 | 177 | 3.0 | 7.0 | 0.03 | 0.41 | 0.33 | 88 | 1009.5 |
| 20260903191505 | 58 | 188 | 4.0 | 8.0 | 0.03 | 0.41 | 0.33 | 88 | 1009.6 |
| 20260903191005 | 58 | 152 | 6.0 | 10.0 | 0.03 | 0.41 | 0.33 | 88 | 1009.6 |
| 20260903190505 | 57 | 196 | 6.0 | 9.0 | 0.02 | 0.40 | 0.32 | 88 | 1009.6 |
| 20260903185505 | 57 | 261 | 1.0 | 2.0 | 0.02 | 0.43 | 0.32 | 88 | 1009.7 |
| 20260903185005 | 57 | 254 | 1.0 | 3.0 | 0.02 | 0.45 | 0.32 | 88 | 1009.7 |
| 20260903184505 | 57 | 294 | 2.0 | 6.0 | 0.02 | 0.45 | 0.32 | 87 | 1009.8 |
| 20260903183006 | 58 | 0 | 5.0 | 9.0 | 0.01 | 0.46 | 0.31 | 85 | 1009.9 |
| 20260903182505 | 59 | 359 | 5.0 | 13.0 | 0.00 | 0.45 | 0.30 | 85 | 1009.9 |
| 20260903182005 | 60 | 203 | 7.0 | 13.0 | 0.00 | 0.45 | 0.30 | 84 | 1009.6 |
| 20260903181505 | 59 | 192 | 5.0 | 13.0 | 0.00 | 0.45 | 0.30 | 84 | 1009.5 |
| 20260903181004 | 59 | 158 | 10.0 | 14.0 | 0.00 | 0.45 | 0.30 | 84 | 1009.3 |
| 20260903180504 | 59 | 166 | 6.0 | 14.0 | 0.00 | 0.45 | 0.30 | 84 | 1009.3 |
| 20260903175505 | 60 | 163 | 11.0 | 17.0 | 0.01 | 0.46 | 0.30 | 84 | 1009.3 |
| 20260903175005 | 60 | 110 | 10.0 | 16.0 | 0.01 | 0.47 | 0.30 | 84 | 1009.3 |
| 20260903174505 | 60 | 118 | 3.0 | 9.0 | 0.01 | 0.47 | 0.30 | 85 | 1009.3 |
| 20260903174005 | 59 | 135 | 9.0 | 13.0 | 0.01 | 0.47 | 0.30 | 84 | 1009.3 |
| 20260903173505 | 60 | 3 | 5.0 | 10.0 | 0.01 | 0.48 | 0.30 | 86 | 1009.4 |
| 20260903173005 | 60 | 347 | 5.0 | 13.0 | 0.01 | 0.48 | 0.30 | 86 | 1009.4 |
| 20260903172504 | 59 | 169 | 6.0 | 10.0 | 0.01 | 0.48 | 0.30 | 87 | 1009.4 |
| 20260903171505 | 58 | 171 | 7.0 | 15.0 | 0.01 | 0.50 | 0.30 | 88 | 1009.5 |
| 20260903171005 | 58 | 164 | 5.0 | 13.0 | 0.01 | 0.50 | 0.30 | 88 | 1009.5 |
| 20260903170505 | 58 | 170 | 6.0 | 9.0 | 0.01 | 0.52 | 0.30 | 88 | 1009.6 |
| 20260903170005 | 58 | 185 | 6.0 | 10.0 | 0.01 | 0.53 | 0.30 | 89 | 1009.5 |
| 20260903165505 | 57 | 188 | 6.0 | 12.0 | 0.00 | 0.52 | 0.29 | 89 | 1009.5 |
| 20260903165005 | 57 | 175 | 5.0 | 15.0 | 0.00 | 0.53 | 0.29 | 89 | 1009.4 |
| 20260903164004 | 57 | 222 | 5.0 | 13.0 | 0.00 | 0.55 | 0.29 | 90 | 1009.6 |
| 20260903162505 | 56 | 189 | 7.0 | 12.0 | 0.00 | 0.56 | 0.29 | 90 | 1009.7 |
| 20260903162005 | 56 | 194 | 6.0 | 10.0 | 0.01 | 0.56 | 0.29 | 90 | 1009.8 |
| 20260903161505 | 56 | 194 | 6.0 | 10.0 | 0.01 | 0.56 | 0.29 | 90 | 1009.7 |
| 20260903161005 | 55 | 180 | 6.0 | 12.0 | 0.02 | 0.56 | 0.29 | 90 | 1009.8 |
| 20260903160505 | 55 | 194 | 6.0 | 15.0 | 0.03 | 0.56 | 0.29 | 90 | 1009.7 |
| 20260903160005 | 55 | 205 | 5.0 | 9.0 | 0.04 | 0.56 | 0.29 | 90 | 1009.6 |
| 20260903155504 | 55 | 190 | 6.0 | 12.0 | 0.05 | 0.56 | 0.29 | 90 | 1009.7 |
| 20260903154505 | 55 | 163 | 4.0 | 13.0 | 0.06 | 0.56 | 0.29 | 90 | 1009.6 |
| 20260903154005 | 55 | 176 | 4.0 | 10.0 | 0.06 | 0.56 | 0.29 | 90 | 1009.6 |
| 20260903153505 | 55 | 172 | 6.0 | 10.0 | 0.06 | 0.56 | 0.29 | 90 | 1009.6 |
| 20260903153005 | 55 | 184 | 5.0 | 9.0 | 0.07 | 0.56 | 0.29 | 90 | 1009.6 |
| 20260903152505 | 55 | 182 | 6.0 | 12.0 | 0.07 | 0.56 | 0.29 | 90 | 1009.6 |
| 20260903152005 | 55 | 170 | 6.0 | 10.0 | 0.07 | 0.55 | 0.28 | 90 | 1009.5 |
| 20260903150505 | 55 | 173 | 5.0 | 12.0 | 0.06 | 0.53 | 0.26 | 90 | 1009.5 |
| 20260903150005 | 55 | 156 | 5.0 | 12.0 | 0.05 | 0.52 | 0.25 | 90 | 1009.5 |
| 20260903145505 | 55 | 176 | 6.0 | 9.0 | 0.04 | 0.51 | 0.24 | 90 | 1009.3 |
| 20260903145005 | 55 | 166 | 5.0 | 9.0 | 0.04 | 0.51 | 0.24 | 90 | 1009.3 |
| 20260903144505 | 55 | 150 | 3.0 | 8.0 | 0.04 | 0.50 | 0.23 | 90 | 1009.3 |
| 20260903143505 | 55 | 160 | 5.0 | 8.0 | 0.05 | 0.50 | 0.23 | 90 | 1009.2 |
| 20260903143005 | 55 | 178 | 6.0 | 10.0 | 0.04 | 0.49 | 0.22 | 90 | 1009.1 |
| 20260903142505 | 55 | 189 | 5.0 | 8.0 | 0.05 | 0.49 | 0.22 | 90 | 1009.1 |
| 20260903142005 | 55 | 191 | 8.0 | 13.0 | 0.07 | 0.48 | 0.21 | 90 | 1009.1 |
| 20260903141505 | 55 | 175 | 8.0 | 16.0 | 0.09 | 0.48 | 0.21 | 90 | 1009.1 |
| 20260903141005 | 55 | 181 | 3.0 | 7.0 | 0.09 | 0.48 | 0.21 | 90 | 1009.1 |
| 20260903140505 | 55 | 189 | 3.0 | 7.0 | 0.08 | 0.47 | 0.20 | 90 | 1009.0 |
| 20260903140005 | 55 | 174 | 4.0 | 8.0 | 0.08 | 0.47 | 0.20 | 90 | 1009.0 |
| 20260903135505 | 55 | 185 | 4.0 | 10.0 | 0.08 | 0.47 | 0.20 | 90 | 1009.0 |
| 20260903134505 | 55 | 171 | 5.0 | 10.0 | 0.07 | 0.46 | 0.19 | 90 | 1009.0 |
| 20260903134005 | 55 | 152 | 3.0 | 10.0 | 0.06 | 0.45 | 0.18 | 90 | 1009.0 |
| 20260903133504 | 55 | 172 | 5.0 | 8.0 | 0.08 | 0.45 | 0.18 | 90 | 1008.8 |
| 20260903133005 | 55 | 168 | 5.0 | 7.0 | 0.11 | 0.45 | 0.18 | 90 | 1008.9 |
| 20260903132505 | 55 | 155 | 2.0 | 7.0 | 0.11 | 0.44 | 0.17 | 90 | 1008.9 |
| 20260903132006 | 55 | 177 | 3.0 | 9.0 | 0.08 | 0.41 | 0.14 | 90 | 1009.0 |
| 20260903131505 | 55 | 177 | 5.0 | 9.0 | 0.07 | 0.39 | 0.12 | 90 | 1008.9 |
| 20260903131005 | 55 | 188 | 6.0 | 10.0 | 0.07 | 0.39 | 0.12 | 90 | 1008.8 |
| 20260903130005 | 55 | 163 | 6.0 | 12.0 | 0.09 | 0.39 | 0.12 | 90 | 1008.7 |
| 20260903125504 | 55 | 165 | 3.0 | 7.0 | 0.09 | 0.39 | 0.12 | 90 | 1008.7 |
| 20260903125005 | 55 | 165 | 2.0 | 5.0 | 0.10 | 0.39 | 0.12 | 90 | 1008.7 |
| 20260903124505 | 55 | 137 | 3.0 | 5.0 | 0.10 | 0.39 | 0.12 | 90 | 1008.7 |
| 20260903124004 | 55 | 170 | 5.0 | 7.0 | 0.11 | 0.39 | 0.12 | 90 | 1008.8 |
| 20260903123505 | 55 | 172 | 5.0 | 8.0 | 0.09 | 0.37 | 0.10 | 90 | 1008.9 |
| 20260903123005 | 55 | 179 | 5.0 | 8.0 | 0.07 | 0.34 | 0.07 | 90 | 1009.0 |
| 20260903122505 | 56 | 160 | 6.0 | 10.0 | 0.06 | 0.33 | 0.06 | 90 | 1009.0 |
| 20260903122005 | 56 | 187 | 5.0 | 9.0 | 0.06 | 0.33 | 0.06 | 89 | 1009.0 |
| 20260903121505 | 56 | 176 | 3.0 | 8.0 | 0.05 | 0.32 | 0.05 | 89 | 1009.0 |
| 20260903121005 | 56 | 180 | 5.0 | 7.0 | 0.05 | 0.32 | 0.05 | 89 | 1008.9 |
| 20260903120504 | 56 | 162 | 3.0 | 6.0 | 0.04 | 0.31 | 0.04 | 89 | 1008.9 |
| 20260903120005 | 56 | 171 | 3.0 | 8.0 | 0.03 | 0.30 | 0.03 | 89 | 1008.9 |
| 20260903115504 | 56 | 166 | 4.0 | 8.0 | 0.03 | 0.30 | 0.03 | 89 | 1008.9 |
| 20260903114505 | 56 | 154 | 2.0 | 7.0 | 0.02 | 0.29 | 0.02 | 89 | 1008.9 |
| 20260903113504 | 56 | 174 | 5.0 | 10.0 | 0.01 | 0.28 | 0.01 | 88 | 1009.0 |
| 20260903112505 | 56 | 153 | 4.0 | 8.0 | 0.00 | 0.27 | 0.00 | 88 | 1008.9 |
| 20260903111505 | 56 | 167 | 5.0 | 10.0 | 0.00 | 0.27 | 0.00 | 88 | 1009.0 |
| 20260903111004 | 56 | 154 | 6.0 | 9.0 | 0.00 | 0.27 | 0.00 | 88 | 1008.9 |
| 20260903110504 | 56 | 170 | 5.0 | 12.0 | 0.00 | 0.27 | 0.00 | 88 | 1008.9 |
| 20260903110005 | 56 | 146 | 4.0 | 8.0 | 0.00 | 0.27 | 0.00 | 88 | 1008.8 |
| 20260903105505 | 56 | 155 | 5.0 | 9.0 | 0.00 | 0.27 | 0.00 | 88 | 1008.9 |
| 20260903104505 | 57 | 139 | 4.0 | 7.0 | 0.00 | 0.27 | 0.00 | 87 | 1008.8 |
| 20260903104005 | 57 | 149 | 4.0 | 9.0 | 0.00 | 0.27 | 0.00 | 87 | 1008.8 |
| 20260903103505 | 57 | 183 | 5.0 | 8.0 | 0.00 | 0.27 | 0.00 | 87 | 1008.8 |
| 20260903103004 | 57 | 176 | 3.0 | 10.0 | 0.00 | 0.27 | 0.00 | 87 | 1008.8 |
| 20260903102504 | 57 | 165 | 5.0 | 8.0 | 0.00 | 0.27 | 0.00 | 87 | 1008.9 |
| 20260903102005 | 56 | 192 | 7.0 | 13.0 | 0.00 | 0.27 | 0.00 | 87 | 1008.9 |
| 20260903101505 | 56 | 180 | 8.0 | 13.0 | 0.00 | 0.27 | 0.00 | 88 | 1008.9 |
| 20260903101005 | 56 | 160 | 3.0 | 7.0 | 0.00 | 0.27 | 0.00 | 88 | 1008.9 |
| 20260903100504 | 56 | 199 | 4.0 | 8.0 | 0.00 | 0.27 | 0.00 | 88 | 1008.9 |
| 20260903100004 | 56 | 163 | 3.0 | 9.0 | 0.00 | 0.27 | 0.00 | 88 | 1008.8 |
| 20260903095505 | 56 | 170 | 5.0 | 10.0 | 0.00 | 0.27 | 0.00 | 88 | 1008.8 |
| 20260903094505 | 56 | 165 | 6.0 | 10.0 | 0.00 | 0.27 | 0.00 | 88 | 1008.8 |
| 20260903094005 | 56 | 151 | 6.0 | 9.0 | 0.00 | 0.27 | 0.00 | 88 | 1008.8 |
| 20260903093504 | 57 | 185 | 6.0 | 9.0 | 0.00 | 0.27 | 0.00 | 88 | 1008.8 |
| 20260903093005 | 57 | 150 | 6.0 | 12.0 | 0.00 | 0.27 | 0.00 | 88 | 1008.8 |
| 20260903092505 | 57 | 168 | 5.0 | 10.0 | 0.00 | 0.27 | 0.00 | 88 | 1008.9 |
| 20260903092004 | 57 | 156 | 3.0 | 7.0 | 0.00 | 0.27 | 0.00 | 88 | 1009.0 |
| 20260903091005 | 57 | 167 | 3.0 | 8.0 | 0.00 | 0.27 | 0.00 | 88 | 1008.9 |
| 20260903090504 | 57 | 162 | 5.0 | 9.0 | 0.00 | 0.27 | 0.00 | 88 | 1009.0 |
| 20260903085504 | 57 | 156 | 6.0 | 10.0 | 0.00 | 0.27 | 0.00 | 88 | 1009.0 |
| 20260903085005 | 57 | 175 | 6.0 | 9.0 | 0.00 | 0.27 | 0.00 | 88 | 1009.1 |
| 20260903084505 | 57 | 170 | 5.0 | 12.0 | 0.00 | 0.27 | 0.00 | 88 | 1009.1 |
| 20260903084005 | 57 | 161 | 7.0 | 14.0 | 0.00 | 0.27 | 0.00 | 88 | 1009.1 |
| 20260903083505 | 57 | 184 | 5.0 | 12.0 | 0.00 | 0.27 | 0.00 | 88 | 1009.0 |
| 20260903082505 | 57 | 167 | 3.0 | 10.0 | 0.00 | 0.27 | 0.00 | 88 | 1009.1 |
| 20260903082004 | 57 | 184 | 3.0 | 12.0 | 0.00 | 0.27 | 0.00 | 88 | 1009.1 |
| 20260903081005 | 57 | 159 | 6.0 | 10.0 | 0.00 | 0.27 | 0.00 | 88 | 1009.1 |
| 20260903080504 | 57 | 177 | 6.0 | 10.0 | 0.00 | 0.27 | 0.00 | 88 | 1009.2 |
| 20260903075504 | 57 | 178 | 4.0 | 9.0 | 0.00 | 0.27 | 0.00 | 88 | 1009.2 |
| 20260903075005 | 57 | 177 | 3.0 | 10.0 | 0.00 | 0.27 | 0.00 | 88 | 1009.3 |
| 20260903074504 | 57 | 193 | 3.0 | 7.0 | 0.00 | 0.27 | 0.00 | 88 | 1009.3 |
| 20260903074004 | 57 | 165 | 5.0 | 9.0 | 0.00 | 0.27 | 0.00 | 88 | 1009.3 |
| 20260903073505 | 57 | 177 | 6.0 | 10.0 | 0.00 | 0.27 | 0.00 | 88 | 1009.3 |
| 20260903072005 | 57 | 173 | 6.0 | 10.0 | 0.00 | 0.27 | 0.00 | 88 | 1009.3 |
| 20260903071504 | 57 | 176 | 7.0 | 12.0 | 0.00 | 0.27 | 0.00 | 88 | 1009.2 |
| 20260903071005 | 57 | 168 | 3.0 | 8.0 | 0.00 | 0.27 | 0.00 | 88 | 1009.1 |
| 20260903070505 | 57 | 178 | 3.0 | 7.0 | 0.00 | 0.27 | 0.00 | 88 | 1009.1 |
| 20260903070005 | 57 | 164 | 2.0 | 5.0 | 0.00 | 0.27 | 0.00 | 88 | 1009.1 |
| 20260903065504 | 57 | 167 | 3.0 | 7.0 | 0.00 | 0.27 | 0.27 | 88 | 1009.2 |
| 20260903065005 | 57 | 191 | 3.0 | 8.0 | 0.00 | 0.27 | 0.27 | 88 | 1009.1 |
| 20260903064505 | 57 | 162 | 2.0 | 7.0 | 0.00 | 0.27 | 0.27 | 87 | 1009.0 |
| 20260903064004 | 57 | 201 | 2.0 | 7.0 | 0.00 | 0.27 | 0.27 | 87 | 1009.1 |
| 20260903062505 | 57 | 195 | 3.0 | 6.0 | 0.00 | 0.27 | 0.27 | 87 | 1009.1 |
| 20260903062005 | 57 | 177 | 4.0 | 6.0 | 0.00 | 0.27 | 0.27 | 87 | 1009.0 |
| 20260903061505 | 57 | 164 | 3.0 | 6.0 | 0.00 | 0.27 | 0.27 | 87 | 1009.0 |
| 20260903061004 | 57 | 183 | 3.0 | 5.0 | 0.00 | 0.27 | 0.27 | 87 | 1009.1 |
| 20260903060505 | 57 | 195 | 2.0 | 9.0 | 0.00 | 0.27 | 0.27 | 86 | 1009.2 |
| 20260903060004 | 57 | 200 | 3.0 | 7.0 | 0.00 | 0.27 | 0.27 | 86 | 1009.2 |
| 20260903055505 | 57 | 175 | 2.0 | 6.0 | 0.00 | 0.27 | 0.27 | 86 | 1009.3 |
| 20260903055005 | 57 | 198 | 3.0 | 8.0 | 0.00 | 0.27 | 0.27 | 86 | 1009.3 |
| 20260903054505 | 57 | 198 | 6.0 | 8.0 | 0.00 | 0.27 | 0.27 | 86 | 1009.3 |
| 20260903054005 | 57 | 189 | 3.0 | 7.0 | 0.00 | 0.27 | 0.27 | 86 | 1009.3 |
| 20260903053504 | 57 | 173 | 3.0 | 10.0 | 0.00 | 0.27 | 0.27 | 86 | 1009.2 |
| 20260903051005 | 57 | 184 | 3.0 | 6.0 | 0.00 | 0.27 | 0.27 | 85 | 1009.2 |
| 20260903050505 | 57 | 189 | 3.0 | 6.0 | 0.00 | 0.27 | 0.27 | 85 | 1009.1 |
| 20260903050005 | 56 | 202 | 2.0 | 9.0 | 0.00 | 0.27 | 0.27 | 85 | 1009.0 |